Location: Newark
(43.9494°N, 6.8108°E)
Time: 01:48:13
(UTC+00:00)

Courier 1B Rocket - All Passes

Search period start: 16 October 2019 00:00
Search period end: 26 October 2019 00:00
Orbit: 920 x 1202 km, 28.2° (Epoch: 14 October)

Date Brightness Start Highest point End Pass type
(mag) Time Alt. Az. Time Alt. Az. Time Alt. Az.
16 Oct - 05:23:17 10° SSW 05:27:29 18° S 05:31:50 10° SE daylight
16 Oct - 07:15:22 10° SW 07:19:53 19° S 07:24:35 10° SE daylight
16 Oct - 09:09:44 10° SW 09:12:16 12° SSW 09:14:51 10° S daylight
17 Oct - 04:23:13 10° SSW 04:26:48 16° SSE 04:30:30 10° SE visible
17 Oct - 06:14:40 10° SW 06:19:08 20° S 06:23:47 10° SE daylight
17 Oct - 08:08:01 10° SW 08:11:32 15° SSW 08:15:09 10° SSE daylight
18 Oct - 03:23:35 10° S 03:26:11 13° SSE 03:28:48 10° SE visible
18 Oct - 05:14:08 10° SW 05:18:26 19° S 05:22:52 10° SE visible
18 Oct - 07:06:51 10° SW 07:10:48 17° S 07:14:54 10° SSE daylight
19 Oct - 04:13:46 10° SSW 04:17:45 18° S 04:21:49 10° SE visible
19 Oct - 06:05:56 10° SW 06:10:06 18° S 06:14:24 10° SE daylight
19 Oct - 08:00:49 10° SW 08:02:25 11° SSW 08:04:02 10° S daylight
20 Oct - 03:13:38 10° SSW 03:17:06 15° SSE 03:20:36 10° SE visible
20 Oct - 05:05:11 10° SW 05:09:24 19° S 05:13:43 10° SE visible
20 Oct - 06:58:45 10° SW 07:01:43 13° SSW 07:04:47 10° SSE daylight
21 Oct - 02:13:53 10° S 02:16:28 13° SSE 02:19:04 10° SE visible
21 Oct - 04:04:35 10° SW 04:08:44 19° S 04:12:56 10° SE visible
21 Oct - 05:57:27 10° SW 06:01:03 16° SSW 06:04:44 10° SSE daylight
22 Oct - 03:04:08 10° SSW 03:08:04 17° S 03:12:01 10° SE visible
22 Oct - 04:56:27 10° SW 05:00:22 17° S 05:04:22 10° SSE visible
23 Oct - 02:03:52 10° SSW 02:07:26 16° SSE 02:10:57 10° SE visible
23 Oct - 03:55:37 10° SW 03:59:43 18° S 04:03:50 10° SE visible
23 Oct - 05:49:28 10° SW 05:51:59 13° SSW 05:54:33 10° S daylight
24 Oct - 01:03:56 10° SSW 01:06:46 13° SSE 01:09:35 10° SE night (unlit)
24 Oct - 02:54:54 10° SW 02:59:03 18° S 03:03:11 10° SE visible
24 Oct - 04:47:59 10° SW 04:51:21 15° SSW 04:54:45 10° SSE visible
25 Oct - 00:04:53 10° S 00:06:07 11° SSE 00:07:21 10° SSE night (unlit)
25 Oct - 01:54:20 10° SW 01:58:23 18° S 02:02:23 10° SE visible
25 Oct - 03:46:50 10° SW 03:50:42 17° S 03:54:33 10° SSE visible
